Skip navigation

Daily Weather Reports

[Select Refresh to Update]


Yesterday's Data File


11/27/14
Time

Wind Dir
 

Wind Spd
mph

Wind Gust
mph

Hum In
%

Humidity
%

Temp In
 F

Temp
 F

Raw Barom
in

Tot Rain
in

DailyRain
in

HourRain
in

24HrRain
in

RainRate
in/hr
12:00am 342 0 4 15 22 76.1 62.6 30.19 1.81 0.00 0.00 0.00 0.000
12:01am 342 0 0 15 22 76.1 62.4 30.19 1.81 0.00 0.00 0.00 0.000
12:02am 342 2 2 15 23 76.1 62.2 30.18 1.81 0.00 0.00 0.00 0.000
12:03am 342 0 2 15 23 76.1 62.1 30.18 1.81 0.00 0.00 0.00 0.000
12:04am 342 0 2 15 23 76.1 61.8 30.18 1.81 0.00 0.00 0.00 0.000
12:05am 342 1 2 15 23 76.1 61.6 30.19 1.81 0.00 0.00 0.00 0.000
12:06am 342 3 3 15 23 76.1 61.4 30.19 1.81 0.00 0.00 0.00 0.000
12:07am 344 3 4 15 23 76.1 61.2 30.19 1.81 0.00 0.00 0.00 0.000
12:08am 344 3 4 15 23 76.1 60.8 30.19 1.81 0.00 0.00 0.00 0.000
12:09am 344 2 4 15 23 76.1 60.3 30.19 1.81 0.00 0.00 0.00 0.000
12:10am 342 2 4 15 23 76.1 59.9 30.19 1.81 0.00 0.00 0.00 0.000
12:11am 343 3 4 15 23 76.1 59.8 30.19 1.81 0.00 0.00 0.00 0.000
12:12am 344 4 5 16 23 75.9 59.7 30.19 1.81 0.00 0.00 0.00 0.000
12:13am 344 1 5 16 23 75.9 59.7 30.19 1.81 0.00 0.00 0.00 0.000
12:14am 344 1 5 16 24 75.9 59.6 30.19 1.81 0.00 0.00 0.00 0.000
12:15am 344 2 5 16 24 75.9 59.4 30.19 1.81 0.00 0.00 0.00 0.000
12:16am 344 1 2 16 23 75.9 59.6 30.19 1.81 0.00 0.00 0.00 0.000
12:17am 344 0 2 16 23 75.9 59.8 30.18 1.81 0.00 0.00 0.00 0.000
12:18am 344 1 2 16 24 75.9 60.1 30.18 1.81 0.00 0.00 0.00 0.000
12:19am 344 1 2 16 25 75.9 60.3 30.18 1.81 0.00 0.00 0.00 0.000
12:20am 344 1 2 16 23 75.9 60.5 30.18 1.81 0.00 0.00 0.00 0.000
12:21am 344 0 2 16 22 75.9 60.8 30.18 1.81 0.00 0.00 0.00 0.000
12:22am 344 1 2 16 23 75.9 60.9 30.18 1.81 0.00 0.00 0.00 0.000
12:23am 344 0 2 16 22 75.8 61.0 30.18 1.81 0.00 0.00 0.00 0.000
12:24am 344 2 2 16 22 75.8 61.2 30.18 1.81 0.00 0.00 0.00 0.000
12:25am 344 0 2 16 22 75.8 61.2 30.18 1.81 0.00 0.00 0.00 0.000
12:26am 344 0 2 16 23 75.8 61.2 30.18 1.81 0.00 0.00 0.00 0.000
12:27am 344 0 2 16 23 75.8 61.2 30.18 1.81 0.00 0.00 0.00 0.000
12:28am 344 0 2 16 24 75.8 61.2 30.18 1.81 0.00 0.00 0.00 0.000
12:29am 344 0 2 16 23 75.8 61.2 30.18 1.81 0.00 0.00 0.00 0.000
12:30am 344 0 2 16 23 75.8 61.0 30.18 1.81 0.00 0.00 0.00 0.000
12:31am 344 0 0 16 24 75.8 61.0 30.18 1.81 0.00 0.00 0.00 0.000
12:32am 344 0 0 16 24 75.8 60.8 30.18 1.81 0.00 0.00 0.00 0.000
12:33am 344 1 2 16 24 75.8 60.8 30.18 1.81 0.00 0.00 0.00 0.000
12:34am 344 1 2 16 24 75.6 60.7 30.18 1.81 0.00 0.00 0.00 0.000
12:35am 344 0 2 16 23 75.6 60.8 30.18 1.81 0.00 0.00 0.00 0.000
12:36am 344 0 2 16 22 75.6 60.9 30.18 1.81 0.00 0.00 0.00 0.000
12:37am 344 0 2 16 22 75.6 61.0 30.18 1.81 0.00 0.00 0.00 0.000
12:38am 344 0 2 16 21 75.6 61.1 30.18 1.81 0.00 0.00 0.00 0.000
12:39am 344 1 2 16 21 75.6 61.1 30.18 1.81 0.00 0.00 0.00 0.000
12:40am 344 1 3 16 22 75.6 61.0 30.18 1.81 0.00 0.00 0.00 0.000
12:41am 344 1 3 16 22 75.6 60.7 30.18 1.81 0.00 0.00 0.00 0.000
12:42am 344 1 3 16 22 75.6 60.5 30.18 1.81 0.00 0.00 0.00 0.000
12:43am 344 0 3 16 22 75.6 60.5 30.18 1.81 0.00 0.00 0.00 0.000
12:44am 344 0 3 16 22 75.4 60.5 30.18 1.81 0.00 0.00 0.00 0.000
12:45am 344 0 3 16 22 75.4 60.6 30.18 1.81 0.00 0.00 0.00 0.000
12:46am 344 0 0 16 22 75.4 60.7 30.18 1.81 0.00 0.00 0.00 0.000
12:47am 344 0 0 16 22 75.4 60.9 30.18 1.81 0.00 0.00 0.00 0.000
12:47am 344 2 2 16 22 75.4 60.9 30.18 1.81 0.00 0.00 0.00 0.000
12:49am 344 2 2 16 22 75.4 60.8 30.18 1.81 0.00 0.00 0.00 0.000
12:50am 344 1 2 16 23 75.4 60.7 30.18 1.81 0.00 0.00 0.00 0.000
12:51am 344 4 4 16 23 75.4 60.7 30.18 1.81 0.00 0.00 0.00 0.000
12:52am 344 3 4 16 22 75.4 60.7 30.18 1.81 0.00 0.00 0.00 0.000
12:53am 344 2 4 16 23 75.4 60.7 30.18 1.81 0.00 0.00 0.00 0.000
12:54am 344 0 4 16 23 75.2 60.8 30.18 1.81 0.00 0.00 0.00 0.000
12:55am 344 0 4 16 24 75.2 60.9 30.18 1.81 0.00 0.00 0.00 0.000
12:56am 344 0 4 16 24 75.2 61.1 30.18 1.81 0.00 0.00 0.00 0.000
12:57am 344 0 4 16 25 75.2 61.1 30.18 1.81 0.00 0.00 0.00 0.000
12:58am 344 0 4 16 24 75.2 61.0 30.18 1.81 0.00 0.00 0.00 0.000
12:59am 344 0 4 16 23 75.2 60.9 30.18 1.81 0.00 0.00 0.00 0.000
1:00am 344 0 4 16 24 75.2 60.8 30.18 1.81 0.00 0.00 0.00 0.000
1:01am 344 2 2 16 25 75.2 60.7 30.17 1.81 0.00 0.00 0.00 0.000
1:02am 344 0 2 16 24 75.2 60.6 30.17 1.81 0.00 0.00 0.00 0.000
1:03am 344 1 2 16 25 75.2 60.6 30.17 1.81 0.00 0.00 0.00 0.000
1:04am 344 2 2 16 24 75.1 60.7 30.17 1.81 0.00 0.00 0.00 0.000
1:05am 344 0 3 16 24 75.1 60.6 30.18 1.81 0.00 0.00 0.00 0.000
1:06am 344 0 3 16 23 75.1 60.6 30.18 1.81 0.00 0.00 0.00 0.000
1:07am 344 0 3 16 23 75.1 60.6 30.17 1.81 0.00 0.00 0.00 0.000
1:08am 344 0 3 16 27 75.1 60.7 30.17 1.81 0.00 0.00 0.00 0.000
1:09am 344 0 3 16 27 75.1 60.6 30.17 1.81 0.00 0.00 0.00 0.000
1:10am 344 5 5 16 27 75.1 60.5 30.17 1.81 0.00 0.00 0.00 0.000
1:11am 344 3 6 16 25 75.1 60.4 30.17 1.81 0.00 0.00 0.00 0.000
1:12am 342 3 6 16 24 74.9 60.5 30.18 1.81 0.00 0.00 0.00 0.000
1:13am 342 0 6 16 24 74.9 60.6 30.18 1.81 0.00 0.00 0.00 0.000
1:14am 342 0 6 16 24 74.9 60.9 30.18 1.81 0.00 0.00 0.00 0.000
1:15am 342 1 6 16 23 74.9 61.1 30.18 1.81 0.00 0.00 0.00 0.000
1:16am 342 2 3 16 23 74.9 61.2 30.18 1.81 0.00 0.00 0.00 0.000
1:17am 353 2 4 16 22 74.9 61.1 30.18 1.81 0.00 0.00 0.00 0.000
1:18am 353 0 4 16 22 74.9 61.0 30.18 1.81 0.00 0.00 0.00 0.000
1:19am 353 2 4 16 22 74.9 60.5 30.18 1.81 0.00 0.00 0.00 0.000
1:20am 353 1 4 16 22 74.9 60.3 30.18 1.81 0.00 0.00 0.00 0.000
1:21am 353 0 4 16 22 74.7 60.2 30.18 1.81 0.00 0.00 0.00 0.000
1:22am 353 0 4 16 23 74.7 60.3 30.18 1.81 0.00 0.00 0.00 0.000
1:23am 353 0 4 16 23 74.7 60.4 30.18 1.81 0.00 0.00 0.00 0.000
1:23am 353 1 4 16 24 74.7 60.5 30.18 1.81 0.00 0.00 0.00 0.000
1:25am 353 0 4 16 24 74.7 60.5 30.18 1.81 0.00 0.00 0.00 0.000
1:26am 353 0 4 16 24 74.7 60.5 30.18 1.81 0.00 0.00 0.00 0.000
1:27am 353 0 4 16 25 74.7 60.5 30.18 1.81 0.00 0.00 0.00 0.000
1:28am 353 0 4 16 26 74.7 60.3 30.18 1.81 0.00 0.00 0.00 0.000
1:29am 353 2 4 16 25 74.7 60.2 30.18 1.81 0.00 0.00 0.00 0.000
1:30am 353 3 4 16 24 74.7 60.1 30.18 1.81 0.00 0.00 0.00 0.000
1:31am 353 1 4 16 24 74.5 60.2 30.18 1.81 0.00 0.00 0.00 0.000
1:32am 353 1 4 16 24 74.5 60.2 30.18 1.81 0.00 0.00 0.00 0.000
1:33am 353 1 4 16 24 74.5 60.2 30.18 1.81 0.00 0.00 0.00 0.000
1:34am 353 0 4 16 24 74.5 60.3 30.18 1.81 0.00 0.00 0.00 0.000
1:35am 353 0 4 16 23 74.5 60.3 30.18 1.81 0.00 0.00 0.00 0.000
1:36am 353 0 4 16 24 74.5 60.3 30.18 1.81 0.00 0.00 0.00 0.000
1:37am 353 1 4 16 24 74.5 60.3 30.18 1.81 0.00 0.00 0.00 0.000
1:38am 353 4 4 16 24 74.5 60.3 30.18 1.81 0.00 0.00 0.00 0.000
1:39am 352 4 4 16 24 74.5 60.4 30.18 1.81 0.00 0.00 0.00 0.000
1:40am 352 3 4 16 24 74.4 60.4 30.18 1.81 0.00 0.00 0.00 0.000
1:40am 352 1 4 16 23 74.4 60.4 30.18 1.81 0.00 0.00 0.00 0.000
1:42am 352 0 4 16 23 74.4 60.3 30.18 1.81 0.00 0.00 0.00 0.000
1:43am 352 0 4 16 23 74.4 60.4 30.18 1.81 0.00 0.00 0.00 0.000
1:44am 352 2 4 16 23 74.4 60.4 30.18 1.81 0.00 0.00 0.00 0.000
1:45am 352 3 4 16 23 74.4 60.5 30.18 1.81 0.00 0.00 0.00 0.000
1:46am 352 3 3 16 23 74.4 60.4 30.18 1.81 0.00 0.00 0.00 0.000
1:47am 352 2 4 16 23 74.4 60.3 30.18 1.81 0.00 0.00 0.00 0.000
1:48am 352 0 4 16 23 74.4 60.2 30.18 1.81 0.00 0.00 0.00 0.000
1:49am 352 0 4 16 24 74.4 60.2 30.18 1.81 0.00 0.00 0.00 0.000
1:50am 352 0 4 16 25 74.2 60.2 30.18 1.81 0.00 0.00 0.00 0.000
1:51am 352 0 4 16 24 74.2 60.1 30.18 1.81 0.00 0.00 0.00 0.000
1:52am 352 0 4 16 24 74.2 60.1 30.18 1.81 0.00 0.00 0.00 0.000
1:53am 352 0 4 16 24 74.2 60.2 30.18 1.81 0.00 0.00 0.00 0.000
1:54am 352 0 4 16 24 74.2 60.2 30.18 1.81 0.00 0.00 0.00 0.000
1:55am 352 0 4 16 24 74.2 60.2 30.18 1.81 0.00 0.00 0.00 0.000
1:56am 352 2 4 16 24 74.2 60.2 30.18 1.81 0.00 0.00 0.00 0.000
1:57am 352 2 4 16 24 74.2 60.3 30.18 1.81 0.00 0.00 0.00 0.000
1:58am 352 0 4 16 24 74.2 60.3 30.18 1.81 0.00 0.00 0.00 0.000
1:59am 352 1 4 16 24 74.0 60.3 30.18 1.81 0.00 0.00 0.00 0.000
2:00am 352 0 4 16 24 74.0 60.4 30.18 1.81 0.00 0.00 0.00 0.000
2:01am 352 0 1 16 24 74.0 60.4 30.18 1.81 0.00 0.00 0.00 0.000
2:02am 352 0 1 16 24 74.0 60.5 30.18 1.81 0.00 0.00 0.00 0.000
2:03am 352 0 1 16 24 74.0 60.6 30.18 1.81 0.00 0.00 0.00 0.000
2:04am 352 0 1 16 23 74.0 60.7 30.18 1.81 0.00 0.00 0.00 0.000
2:05am 352 2 2 16 24 74.0 60.7 30.18 1.81 0.00 0.00 0.00 0.000
2:06am 352 3 3 16 24 74.0 60.7 30.18 1.81 0.00 0.00 0.00 0.000
2:07am 352 1 3 16 24 74.0 60.6 30.18 1.81 0.00 0.00 0.00 0.000
2:08am 352 0 3 16 23 73.9 60.6 30.17 1.81 0.00 0.00 0.00 0.000
2:09am 352 0 3 16 23 73.9 60.6 30.18 1.81 0.00 0.00 0.00 0.000
2:10am 352 0 3 16 24 73.9 60.7 30.18 1.81 0.00 0.00 0.00 0.000
2:11am 352 0 3 16 23 73.9 60.7 30.18 1.81 0.00 0.00 0.00 0.000
2:12am 352 0 3 16 23 73.9 60.7 30.17 1.81 0.00 0.00 0.00 0.000
2:13am 352 0 3 16 23 73.9 60.6 30.17 1.81 0.00 0.00 0.00 0.000
2:14am 352 1 3 16 22 73.9 60.6 30.17 1.81 0.00 0.00 0.00 0.000
2:15am 352 0 3 16 23 73.9 60.6 30.17 1.81 0.00 0.00 0.00 0.000
2:16am 352 1 2 16 24 73.9 60.4 30.17 1.81 0.00 0.00 0.00 0.000
2:17am 352 2 2 16 24 73.7 60.3 30.18 1.81 0.00 0.00 0.00 0.000
2:18am 352 1 2 16 24 73.7 60.3 30.17 1.81 0.00 0.00 0.00 0.000
2:18am 352 2 2 16 24 73.7 60.2 30.17 1.81 0.00 0.00 0.00 0.000
2:20am 352 1 2 16 24 73.7 60.3 30.18 1.81 0.00 0.00 0.00 0.000
2:21am 352 0 2 16 24 73.7 60.3 30.17 1.81 0.00 0.00 0.00 0.000
2:22am 352 1 2 16 24 73.7 60.2 30.17 1.81 0.00 0.00 0.00 0.000
2:23am 352 2 2 16 23 73.7 60.3 30.17 1.81 0.00 0.00 0.00 0.000
2:24am 352 1 2 16 23 73.7 60.3 30.17 1.81 0.00 0.00 0.00 0.000
2:25am 352 2 3 16 23 73.7 60.4 30.17 1.81 0.00 0.00 0.00 0.000
2:26am 352 1 3 16 24 73.7 60.4 30.17 1.81 0.00 0.00 0.00 0.000
2:27am 340 2 3 16 25 73.5 60.4 30.17 1.81 0.00 0.00 0.00 0.000
2:28am 333 2 4 16 24 73.5 60.4 30.17 1.81 0.00 0.00 0.00 0.000
2:29am 333 4 5 16 24 73.5 60.6 30.17 1.81 0.00 0.00 0.00 0.000
2:30am 333 3 5 16 24 73.5 60.6 30.17 1.81 0.00 0.00 0.00 0.000
2:31am 333 3 4 16 24 73.5 60.6 30.17 1.81 0.00 0.00 0.00 0.000
2:32am 333 3 4 16 24 73.5 60.6 30.17 1.81 0.00 0.00 0.00 0.000
2:32am 347 4 4 16 24 73.5 60.4 30.17 1.81 0.00 0.00 0.00 0.000
2:34am 348 3 4 16 23 73.5 60.1 30.17 1.81 0.00 0.00 0.00 0.000
2:35am 348 4 4 16 23 73.5 59.8 30.17 1.81 0.00 0.00 0.00 0.000
2:35am 340 4 5 16 23 73.5 59.3 30.17 1.81 0.00 0.00 0.00 0.000
2:37am 339 3 5 16 23 73.3 59.3 30.18 1.81 0.00 0.00 0.00 0.000
2:38am 339 2 5 16 23 73.3 59.3 30.18 1.81 0.00 0.00 0.00 0.000
2:38am 338 4 5 16 24 73.3 59.6 30.17 1.81 0.00 0.00 0.00 0.000
2:40am 339 3 5 16 24 73.3 59.7 30.17 1.81 0.00 0.00 0.00 0.000
2:41am 338 2 5 16 23 73.3 59.8 30.17 1.81 0.00 0.00 0.00 0.000
2:42am 338 3 5 16 23 73.3 59.8 30.17 1.81 0.00 0.00 0.00 0.000
2:43am 339 2 5 16 23 73.3 59.8 30.17 1.81 0.00 0.00 0.00 0.000
2:44am 339 0 5 16 25 73.3 59.8 30.17 1.81 0.00 0.00 0.00 0.000
2:45am 339 3 5 16 27 73.3 59.9 30.17 1.81 0.00 0.00 0.00 0.000
2:46am 339 3 4 16 24 73.2 59.9 30.17 1.81 0.00 0.00 0.00 0.000
2:47am 338 3 4 16 23 73.2 59.9 30.17 1.81 0.00 0.00 0.00 0.000
2:48am 339 1 4 16 23 73.2 60.0 30.17 1.81 0.00 0.00 0.00 0.000
2:48am 339 0 4 16 25 73.2 60.0 30.17 1.81 0.00 0.00 0.00 0.000
2:50am 339 2 4 16 24 73.2 60.1 30.17 1.81 0.00 0.00 0.00 0.000
2:51am 338 0 4 16 24 73.2 60.1 30.17 1.81 0.00 0.00 0.00 0.000
2:52am 318 4 5 16 24 73.2 60.2 30.17 1.81 0.00 0.00 0.00 0.000
2:52am 318 3 5 16 24 73.2 60.2 30.17 1.81 0.00 0.00 0.00 0.000
2:54am 318 0 5 16 25 73.2 60.3 30.17 1.81 0.00 0.00 0.00 0.000
2:55am 318 1 5 16 26 73.2 60.4 30.17 1.81 0.00 0.00 0.00 0.000
2:56am 319 2 5 16 25 73.2 60.5 30.17 1.81 0.00 0.00 0.00 0.000
2:57am 318 0 5 16 25 73.2 60.6 30.17 1.81 0.00 0.00 0.00 0.000
2:58am 319 0 5 16 25 73.2 60.7 30.17 1.81 0.00 0.00 0.00 0.000
2:59am 319 0 5 16 24 73.0 60.8 30.17 1.81 0.00 0.00 0.00 0.000
3:00am 319 0 5 16 24 73.0 61.0 30.17 1.81 0.00 0.00 0.00 0.000
3:01am 318 1 1 16 25 73.0 61.0 30.17 1.81 0.00 0.00 0.00 0.000
3:01am 319 3 4 16 26 73.0 60.9 30.17 1.81 0.00 0.00 0.00 0.000
3:03am 318 1 4 16 24 73.0 60.9 30.17 1.81 0.00 0.00 0.00 0.000
3:04am 319 0 4 16 24 73.0 60.8 30.17 1.81 0.00 0.00 0.00 0.000
3:05am 319 0 4 16 24 73.0 60.7 30.17 1.81 0.00 0.00 0.00 0.000
3:06am 319 0 4 16 23 73.0 60.8 30.17 1.81 0.00 0.00 0.00 0.000
3:07am 319 0 4 16 25 73.0 60.6 30.17 1.81 0.00 0.00 0.00 0.000
3:08am 319 2 4 16 25 73.0 60.4 30.17 1.81 0.00 0.00 0.00 0.000
3:09am 322 3 4 16 23 72.8 60.3 30.17 1.81 0.00 0.00 0.00 0.000
3:10am 325 2 4 16 23 72.8 60.3 30.17 1.81 0.00 0.00 0.00 0.000
3:11am 325 0 4 16 23 72.8 60.4 30.17 1.81 0.00 0.00 0.00 0.000
3:12am 325 1 4 16 23 72.8 60.6 30.17 1.81 0.00 0.00 0.00 0.000
3:13am 325 1 4 16 24 72.8 60.8 30.17 1.81 0.00 0.00 0.00 0.000
3:14am 325 1 4 16 24 72.8 60.9 30.17 1.81 0.00 0.00 0.00 0.000
3:15am 328 2 4 16 24 72.8 60.9 30.17 1.81 0.00 0.00 0.00 0.000
3:16am 328 3 4 16 24 72.8 60.9 30.17 1.81 0.00 0.00 0.00 0.000
3:17am 328 3 4 16 23 72.8 61.0 30.17 1.81 0.00 0.00 0.00 0.000
3:18am 328 2 4 16 22 72.8 61.4 30.17 1.81 0.00 0.00 0.00 0.000
3:19am 328 4 4 16 21 72.7 61.8 30.17 1.81 0.00 0.00 0.00 0.000
3:19am 332 5 5 16 21 72.7 62.0 30.16 1.81 0.00 0.00 0.00 0.000
3:21am 334 4 5 16 21 72.7 62.2 30.16 1.81 0.00 0.00 0.00 0.000
3:22am 345 4 5 16 20 72.7 62.4 30.16 1.81 0.00 0.00 0.00 0.000
3:23am 345 2 5 16 20 72.7 62.4 30.16 1.81 0.00 0.00 0.00 0.000
3:24am 345 3 5 16 20 72.7 62.4 30.16 1.81 0.00 0.00 0.00 0.000
3:25am 345 1 5 16 21 72.7 62.4 30.16 1.81 0.00 0.00 0.00 0.000
3:26am 344 1 5 16 21 72.7 62.5 30.16 1.81 0.00 0.00 0.00 0.000
3:27am 344 0 5 16 20 72.7 62.7 30.16 1.81 0.00 0.00 0.00 0.000
3:28am 344 0 5 16 21 72.7 63.1 30.16 1.81 0.00 0.00 0.00 0.000
3:29am 344 0 5 16 22 72.5 63.0 30.16 1.81 0.00 0.00 0.00 0.000
3:30am 344 1 5 16 22 72.5 62.9 30.16 1.81 0.00 0.00 0.00 0.000
3:30am 344 1 2 16 21 72.5 62.9 30.16 1.81 0.00 0.00 0.00 0.000
3:32am 344 0 2 16 22 72.5 62.7 30.16 1.81 0.00 0.00 0.00 0.000
3:33am 344 3 3 16 22 72.5 62.5 30.16 1.81 0.00 0.00 0.00 0.000
3:34am 344 3 4 16 22 72.5 62.1 30.16 1.81 0.00 0.00 0.00 0.000
3:35am 344 2 4 16 21 72.5 62.0 30.16 1.81 0.00 0.00 0.00 0.000
3:35am 344 3 4 16 21 72.5 62.2 30.16 1.81 0.00 0.00 0.00 0.000
3:37am 344 2 4 16 21 72.5 62.5 30.16 1.81 0.00 0.00 0.00 0.000
3:38am 344 2 4 16 21 72.5 62.7 30.16 1.81 0.00 0.00 0.00 0.000
3:39am 344 2 4 16 20 72.5 62.8 30.16 1.81 0.00 0.00 0.00 0.000
3:40am 344 1 4 16 20 72.3 62.7 30.16 1.81 0.00 0.00 0.00 0.000
3:41am 344 2 4 16 20 72.3 62.7 30.15 1.81 0.00 0.00 0.00 0.000
3:42am 344 0 4 16 20 72.3 62.8 30.15 1.81 0.00 0.00 0.00 0.000
3:43am 344 1 4 16 20 72.3 62.9 30.15 1.81 0.00 0.00 0.00 0.000
3:44am 344 2 4 16 20 72.3 62.9 30.15 1.81 0.00 0.00 0.00 0.000
3:45am 344 0 4 16 20 72.3 62.8 30.15 1.81 0.00 0.00 0.00 0.000
3:46am 344 0 1 16 20 72.3 62.8 30.16 1.81 0.00 0.00 0.00 0.000
3:47am 344 0 1 16 20 72.3 62.8 30.15 1.81 0.00 0.00 0.00 0.000
3:47am 344 0 1 16 21 72.3 62.9 30.15 1.81 0.00 0.00 0.00 0.000
3:49am 344 0 1 16 22 72.3 62.7 30.15 1.81 0.00 0.00 0.00 0.000
3:49am 344 3 3 16 23 72.3 62.6 30.15 1.81 0.00 0.00 0.00 0.000
3:51am 344 3 4 16 22 72.1 62.4 30.15 1.81 0.00 0.00 0.00 0.000
3:52am 345 3 4 16 23 72.1 62.2 30.15 1.81 0.00 0.00 0.00 0.000
3:53am 345 3 4 16 22 72.1 61.9 30.15 1.81 0.00 0.00 0.00 0.000
3:54am 345 2 4 16 22 72.1 61.7 30.15 1.81 0.00 0.00 0.00 0.000
3:55am 345 0 4 16 23 72.1 61.4 30.15 1.81 0.00 0.00 0.00 0.000
3:56am 345 1 4 16 23 72.1 61.1 30.16 1.81 0.00 0.00 0.00 0.000
3:57am 345 1 4 16 23 72.1 60.9 30.16 1.81 0.00 0.00 0.00 0.000
3:58am 345 3 4 16 23 72.1 60.6 30.16 1.81 0.00 0.00 0.00 0.000
3:59am 345 3 5 16 22 72.1 60.5 30.16 1.81 0.00 0.00 0.00 0.000
4:00am 345 3 5 16 22 72.1 60.3 30.16 1.81 0.00 0.00 0.00 0.000
4:01am 345 3 4 16 22 72.1 60.2 30.16 1.81 0.00 0.00 0.00 0.000
4:02am 344 4 4 16 22 72.1 60.0 30.16 1.81 0.00 0.00 0.00 0.000
4:03am 338 4 5 16 22 72.0 59.9 30.16 1.81 0.00 0.00 0.00 0.000
4:04am 344 3 5 16 22 72.0 60.0 30.16 1.81 0.00 0.00 0.00 0.000
4:05am 344 4 5 16 22 72.0 60.1 30.16 1.81 0.00 0.00 0.00 0.000
4:06am 344 4 5 16 22 72.0 60.1 30.16 1.81 0.00 0.00 0.00 0.000
4:07am 344 1 5 16 22 72.0 60.0 30.16 1.81 0.00 0.00 0.00 0.000
4:08am 344 0 5 16 22 72.0 59.7 30.16 1.81 0.00 0.00 0.00 0.000
4:09am 344 2 5 16 22 72.0 59.3 30.16 1.81 0.00 0.00 0.00 0.000
4:10am 344 2 5 16 22 72.0 59.3 30.16 1.81 0.00 0.00 0.00 0.000
4:10am 344 0 5 16 23 72.0 59.3 30.16 1.81 0.00 0.00 0.00 0.000
4:12am 344 0 5 16 24 72.0 59.3 30.16 1.81 0.00 0.00 0.00 0.000
4:13am 344 0 5 16 25 72.0 59.3 30.16 1.81 0.00 0.00 0.00 0.000
4:14am 344 2 5 16 24 72.0 59.3 30.17 1.81 0.00 0.00 0.00 0.000
4:15am 344 1 5 16 23 72.0 59.3 30.16 1.81 0.00 0.00 0.00 0.000
4:16am 344 1 2 16 23 71.8 59.5 30.16 1.81 0.00 0.00 0.00 0.000
4:17am 344 0 2 16 23 71.8 59.7 30.16 1.81 0.00 0.00 0.00 0.000
4:18am 344 3 3 16 23 71.8 59.7 30.16 1.81 0.00 0.00 0.00 0.000
4:18am 344 3 3 16 23 71.8 59.7 30.16 1.81 0.00 0.00 0.00 0.000
4:20am 344 2 4 16 22 71.8 59.5 30.16 1.81 0.00 0.00 0.00 0.000
4:20am 344 1 4 16 22 71.8 59.3 30.16 1.81 0.00 0.00 0.00 0.000
4:22am 344 2 4 16 23 71.8 59.3 30.16 1.81 0.00 0.00 0.00 0.000
4:23am 344 2 4 16 23 71.8 59.0 30.16 1.81 0.00 0.00 0.00 0.000
4:24am 344 0 4 16 23 71.8 58.9 30.16 1.81 0.00 0.00 0.00 0.000
4:25am 344 1 4 16 23 71.8 58.9 30.16 1.81 0.00 0.00 0.00 0.000
4:26am 344 3 4 16 23 71.8 58.9 30.16 1.81 0.00 0.00 0.00 0.000
4:27am 344 1 4 16 24 71.8 58.9 30.16 1.81 0.00 0.00 0.00 0.000
4:28am 344 0 4 16 24 71.8 59.0 30.16 1.81 0.00 0.00 0.00 0.000
4:29am 344 3 4 16 24 71.6 59.3 30.16 1.81 0.00 0.00 0.00 0.000
4:30am 344 1 4 16 24 71.6 59.3 30.16 1.81 0.00 0.00 0.00 0.000
4:31am 344 3 3 16 24 71.6 59.3 30.16 1.81 0.00 0.00 0.00 0.000
4:32am 344 3 4 16 23 71.6 59.3 30.16 1.81 0.00 0.00 0.00 0.000
4:33am 344 2 4 16 23 71.6 59.5 30.16 1.81 0.00 0.00 0.00 0.000
4:34am 344 1 4 16 23 71.6 59.3 30.16 1.81 0.00 0.00 0.00 0.000
4:35am 344 0 4 16 22 71.6 59.3 30.16 1.81 0.00 0.00 0.00 0.000
4:36am 344 1 4 16 22 71.6 59.3 30.16 1.81 0.00 0.00 0.00 0.000
4:37am 344 0 4 16 22 71.6 59.3 30.16 1.81 0.00 0.00 0.00 0.000
4:38am 344 1 4 16 22 71.6 59.3 30.16 1.81 0.00 0.00 0.00 0.000
4:39am 344 0 4 16 23 71.6 59.3 30.16 1.81 0.00 0.00 0.00 0.000
4:40am 344 0 4 16 24 71.6 59.3 30.16 1.81 0.00 0.00 0.00 0.000
4:41am 344 2 4 16 24 71.6 59.3 30.16 1.81 0.00 0.00 0.00 0.000
4:42am 344 2 4 16 25 71.5 59.3 30.16 1.81 0.00 0.00 0.00 0.000
4:43am 344 3 4 16 24 71.5 59.3 30.16 1.81 0.00 0.00 0.00 0.000
4:44am 344 2 4 16 23 71.5 59.3 30.16 1.81 0.00 0.00 0.00 0.000
4:45am 344 2 4 16 23 71.5 59.3 30.16 1.81 0.00 0.00 0.00 0.000
4:46am 344 0 2 16 23 71.5 59.5 30.16 1.81 0.00 0.00 0.00 0.000
4:47am 344 2 3 16 23 71.5 59.4 30.16 1.81 0.00 0.00 0.00 0.000
4:48am 344 2 3 16 23 71.5 59.3 30.16 1.81 0.00 0.00 0.00 0.000
4:49am 344 3 4 16 23 71.5 59.3 30.16 1.81 0.00 0.00 0.00 0.000
4:50am 344 3 4 16 23 71.5 59.3 30.16 1.81 0.00 0.00 0.00 0.000
4:51am 344 3 4 16 23 71.5 59.3 30.16 1.81 0.00 0.00 0.00 0.000
4:52am 344 3 4 16 23 71.5 59.3 30.16 1.81 0.00 0.00 0.00 0.000
4:52am 344 0 4 16 24 71.5 59.3 30.16 1.81 0.00 0.00 0.00 0.000
4:54am 344 0 4 16 24 71.5 59.5 30.16 1.81 0.00 0.00 0.00 0.000
4:54am 344 3 4 16 23 71.5 59.6 30.16 1.81 0.00 0.00 0.00 0.000
4:56am 344 3 4 16 24 71.3 59.6 30.16 1.81 0.00 0.00 0.00 0.000
4:57am 344 2 4 16 24 71.3 59.7 30.16 1.81 0.00 0.00 0.00 0.000
4:58am 344 2 4 16 23 71.3 59.8 30.16 1.81 0.00 0.00 0.00 0.000
4:59am 344 0 4 16 24 71.3 59.7 30.16 1.81 0.00 0.00 0.00 0.000
5:00am 344 3 4 16 24 71.3 59.5 30.16 1.81 0.00 0.00 0.00 0.000
5:01am 344 0 4 16 24 71.3 59.4 30.16 1.81 0.00 0.00 0.00 0.000
5:02am 344 2 4 16 25 71.3 59.4 30.17 1.81 0.00 0.00 0.00 0.000
5:03am 344 0 4 16 24 71.3 59.4 30.17 1.81 0.00 0.00 0.00 0.000
5:04am 344 3 4 16 24 71.3 59.3 30.17 1.81 0.00 0.00 0.00 0.000
5:04am 344 2 4 16 24 71.3 59.3 30.17 1.81 0.00 0.00 0.00 0.000
5:06am 344 2 4 16 24 71.3 59.4 30.17 1.81 0.00 0.00 0.00 0.000
5:07am 344 2 5 16 23 71.3 59.6 30.16 1.81 0.00 0.00 0.00 0.000
5:08am 344 4 5 16 23 71.1 59.8 30.17 1.81 0.00 0.00 0.00 0.000
5:09am 344 4 6 16 22 71.1 59.9 30.17 1.81 0.00 0.00 0.00 0.000
5:10am 344 3 6 16 22 71.1 59.9 30.17 1.81 0.00 0.00 0.00 0.000
5:11am 344 3 6 16 22 71.1 60.0 30.16 1.81 0.00 0.00 0.00 0.000
5:12am 344 3 6 16 22 71.1 60.1 30.17 1.81 0.00 0.00 0.00 0.000
5:13am 344 1 6 16 23 71.1 60.2 30.17 1.81 0.00 0.00 0.00 0.000
5:14am 344 1 6 16 23 71.1 60.4 30.17 1.81 0.00 0.00 0.00 0.000
5:15am 344 2 6 16 22 71.1 60.4 30.17 1.81 0.00 0.00 0.00 0.000
5:16am 344 1 2 16 22 71.1 60.4 30.17 1.81 0.00 0.00 0.00 0.000
5:17am 344 1 2 16 23 71.1 60.4 30.17 1.81 0.00 0.00 0.00 0.000
5:18am 344 0 2 16 22 71.1 60.5 30.16 1.81 0.00 0.00 0.00 0.000
5:19am 344 2 2 16 22 71.1 60.5 30.16 1.81 0.00 0.00 0.00 0.000
5:20am 344 3 3 16 23 71.1 60.5 30.16 1.81 0.00 0.00 0.00 0.000
5:21am 344 3 3 16 22 71.1 60.5 30.16 1.81 0.00 0.00 0.00 0.000
5:22am 344 1 3 16 23 71.0 60.5 30.16 1.81 0.00 0.00 0.00 0.000
5:23am 344 0 3 16 23 71.0 60.5 30.16 1.81 0.00 0.00 0.00 0.000
5:24am 344 0 3 16 24 71.0 60.5 30.16 1.81 0.00 0.00 0.00 0.000
5:25am 344 4 4 16 23 71.0 60.4 30.17 1.81 0.00 0.00 0.00 0.000
5:26am 342 2 4 16 23 71.0 60.3 30.16 1.81 0.00 0.00 0.00 0.000
5:26am 343 1 4 16 23 71.0 60.1 30.16 1.81 0.00 0.00 0.00 0.000
5:28am 343 3 4 16 23 71.0 60.0 30.16 1.81 0.00 0.00 0.00 0.000
5:29am 342 0 4 16 23 71.0 59.8 30.17 1.81 0.00 0.00 0.00 0.000
5:29am 343 0 4 16 23 71.0 59.8 30.17 1.81 0.00 0.00 0.00 0.000
5:31am 343 1 1 16 24 71.0 59.8 30.16 1.81 0.00 0.00 0.00 0.000
5:32am 343 2 3 16 24 71.0 59.9 30.17 1.81 0.00 0.00 0.00 0.000
5:33am 342 0 3 16 23 71.0 60.0 30.17 1.81 0.00 0.00 0.00 0.000
5:34am 342 0 3 16 23 71.0 60.1 30.17 1.81 0.00 0.00 0.00 0.000
5:35am 343 0 3 16 23 71.0 60.1 30.17 1.81 0.00 0.00 0.00 0.000
5:36am 342 1 3 16 23 70.8 60.0 30.17 1.81 0.00 0.00 0.00 0.000
5:37am 344 2 4 16 22 70.8 59.9 30.17 1.81 0.00 0.00 0.00 0.000
5:38am 344 3 4 16 22 70.8 59.8 30.17 1.81 0.00 0.00 0.00 0.000
5:39am 353 3 4 16 22 70.8 59.7 30.17 1.81 0.00 0.00 0.00 0.000
5:40am 356 3 4 16 22 70.8 59.5 30.17 1.81 0.00 0.00 0.00 0.000
5:41am 356 2 4 16 22 70.8 59.3 30.17 1.81 0.00 0.00 0.00 0.000
5:42am 356 3 4 16 22 70.8 59.3 30.17 1.81 0.00 0.00 0.00 0.000
5:43am 356 1 4 16 22 70.8 59.3 30.17 1.81 0.00 0.00 0.00 0.000
5:44am 356 0 4 16 22 70.8 59.3 30.17 1.81 0.00 0.00 0.00 0.000
5:45am 356 0 4 16 22 70.8 59.2 30.17 1.81 0.00 0.00 0.00 0.000
5:46am 356 0 0 16 22 70.8 59.2 30.17 1.81 0.00 0.00 0.00 0.000
5:47am 356 0 0 16 23 70.8 59.3 30.17 1.81 0.00 0.00 0.00 0.000
5:48am 356 0 0 16 22 70.8 59.3 30.17 1.81 0.00 0.00 0.00 0.000
5:49am 356 0 0 16 22 70.8 59.3 30.17 1.81 0.00 0.00 0.00 0.000
5:50am 356 0 0 16 23 70.6 59.3 30.17 1.81 0.00 0.00 0.00 0.000
5:51am 356 3 3 16 23 70.6 59.5 30.17 1.81 0.00 0.00 0.00 0.000
5:52am 356 2 3 16 23 70.6 59.6 30.17 1.81 0.00 0.00 0.00 0.000
5:53am 352 4 5 16 23 70.6 59.5 30.17 1.81 0.00 0.00 0.00 0.000
5:54am 352 4 5 16 23 70.6 59.5 30.17 1.81 0.00 0.00 0.00 0.000
5:55am 352 2 5 16 23 70.6 59.3 30.17 1.81 0.00 0.00 0.00 0.000
5:56am 352 1 5 16 22 70.6 59.3 30.18 1.81 0.00 0.00 0.00 0.000
5:57am 352 2 5 16 22 70.6 59.3 30.18 1.81 0.00 0.00 0.00 0.000
5:58am 352 2 5 16 22 70.6 59.1 30.18 1.81 0.00 0.00 0.00 0.000
5:59am 353 1 5 16 22 70.6 58.9 30.18 1.81 0.00 0.00 0.00 0.000
6:00am 353 2 5 16 22 70.6 58.8 30.18 1.81 0.00 0.00 0.00 0.000
6:01am 353 1 1 16 23 70.6 58.6 30.18 1.81 0.00 0.00 0.00 0.000
6:02am 353 0 2 16 23 70.6 58.5 30.18 1.81 0.00 0.00 0.00 0.000
6:03am 353 2 3 16 23 70.6 58.6 30.18 1.81 0.00 0.00 0.00 0.000
6:04am 353 3 4 16 23 70.6 58.7 30.18 1.81 0.00 0.00 0.00 0.000
6:05am 353 3 4 16 23 70.6 58.6 30.18 1.81 0.00 0.00 0.00 0.000
6:06am 353 2 4 16 23 70.6 58.5 30.18 1.81 0.00 0.00 0.00 0.000
6:07am 353 2 4 16 23 70.6 58.4 30.18 1.81 0.00 0.00 0.00 0.000
6:08am 353 1 4 16 23 70.6 58.3 30.18 1.81 0.00 0.00 0.00 0.000
6:09am 353 1 4 16 24 70.5 58.3 30.18 1.81 0.00 0.00 0.00 0.000
6:10am 353 2 4 16 24 70.5 58.4 30.18 1.81 0.00 0.00 0.00 0.000
6:11am 353 3 4 16 24 70.5 58.5 30.18 1.81 0.00 0.00 0.00 0.000
6:12am 353 1 4 16 24 70.5 58.6 30.18 1.81 0.00 0.00 0.00 0.000
6:13am 353 2 4 16 24 70.5 58.7 30.18 1.81 0.00 0.00 0.00 0.000
6:14am 353 2 4 16 23 70.5 58.8 30.18 1.81 0.00 0.00 0.00 0.000
6:15am 353 1 4 16 24 70.5 58.9 30.18 1.81 0.00 0.00 0.00 0.000
6:16am 353 1 2 16 24 70.5 59.1 30.18 1.81 0.00 0.00 0.00 0.000
6:17am 353 0 2 16 23 70.5 59.3 30.18 1.81 0.00 0.00 0.00 0.000
6:18am 353 0 2 16 23 70.5 59.3 30.18 1.81 0.00 0.00 0.00 0.000
6:19am 353 0 2 16 23 70.5 59.3 30.18 1.81 0.00 0.00 0.00 0.000
6:20am 353 2 3 16 23 70.5 59.1 30.18 1.81 0.00 0.00 0.00 0.000
6:21am 353 2 3 16 23 70.5 59.0 30.18 1.81 0.00 0.00 0.00 0.000
6:22am 345 3 4 16 24 70.5 59.0 30.18 1.81 0.00 0.00 0.00 0.000
6:23am 345 4 4 16 23 70.5 59.1 30.18 1.81 0.00 0.00 0.00 0.000
6:24am 346 0 4 16 23 70.5 59.2 30.18 1.81 0.00 0.00 0.00 0.000
6:25am 346 3 4 16 24 70.5 58.9 30.18 1.81 0.00 0.00 0.00 0.000
6:26am 346 2 4 16 24 70.5 58.8 30.18 1.81 0.00 0.00 0.00 0.000
6:27am 346 3 4 16 23 70.3 58.7 30.18 1.81 0.00 0.00 0.00 0.000
6:28am 345 4 4 16 23 70.3 58.5 30.18 1.81 0.00 0.00 0.00 0.000
6:29am 345 1 4 16 23 70.3 58.5 30.18 1.81 0.00 0.00 0.00 0.000
6:30am 346 0 4 16 25 70.3 58.5 30.18 1.81 0.00 0.00 0.00 0.000
6:31am 346 1 2 16 24 70.3 58.6 30.18 1.81 0.00 0.00 0.00 0.000
6:32am 345 1 2 16 24 70.3 58.7 30.18 1.81 0.00 0.00 0.00 0.000
6:33am 346 3 3 16 24 70.3 58.6 30.18 1.81 0.00 0.00 0.00 0.000
6:34am 346 3 4 16 23 70.3 58.5 30.18 1.81 0.00 0.00 0.00 0.000
6:35am 345 3 4 16 23 70.3 58.4 30.19 1.81 0.00 0.00 0.00 0.000
6:36am 346 1 4 16 24 70.3 58.4 30.19 1.81 0.00 0.00 0.00 0.000
6:37am 346 1 4 16 24 70.3 58.4 30.19 1.81 0.00 0.00 0.00 0.000
6:38am 346 4 4 16 23 70.3 58.5 30.19 1.81 0.00 0.00 0.00 0.000
6:39am 346 2 4 16 23 70.3 58.6 30.18 1.81 0.00 0.00 0.00 0.000
6:40am 346 2 4 16 23 70.3 58.5 30.18 1.81 0.00 0.00 0.00 0.000
6:41am 346 3 4 16 23 70.3 58.3 30.18 1.81 0.00 0.00 0.00 0.000
6:42am 346 3 4 16 23 70.3 58.1 30.19 1.81 0.00 0.00 0.00 0.000
6:43am 346 2 4 16 23 70.3 58.1 30.19 1.81 0.00 0.00 0.00 0.000
6:44am 346 2 4 16 23 70.1 58.1 30.19 1.81 0.00 0.00 0.00 0.000
6:45am 346 3 4 16 23 70.1 58.1 30.19 1.81 0.00 0.00 0.00 0.000
6:46am 346 2 3 16 24 70.1 58.1 30.19 1.81 0.00 0.00 0.00 0.000
6:47am 346 2 3 16 24 70.1 58.2 30.19 1.81 0.00 0.00 0.00 0.000
6:48am 345 2 3 16 23 70.1 58.3 30.19 1.81 0.00 0.00 0.00 0.000
6:49am 346 1 3 16 23 70.1 58.4 30.19 1.81 0.00 0.00 0.00 0.000
6:50am 346 1 3 16 23 70.1 58.7 30.18 1.81 0.00 0.00 0.00 0.000
6:51am 346 1 3 16 23 70.1 59.0 30.18 1.81 0.00 0.00 0.00 0.000
6:52am 346 0 3 16 24 70.1 59.3 30.18 1.81 0.00 0.00 0.00 0.000
6:53am 346 1 3 16 23 70.1 59.3 30.18 1.81 0.00 0.00 0.00 0.000
6:54am 346 0 3 16 23 70.1 59.3 30.18 1.81 0.00 0.00 0.00 0.000
6:55am 345 0 3 16 23 70.1 59.4 30.18 1.81 0.00 0.00 0.00 0.000
6:56am 345 1 3 16 23 70.1 59.6 30.18 1.81 0.00 0.00 0.00 0.000
6:57am 345 0 3 16 23 70.1 59.7 30.18 1.81 0.00 0.00 0.00 0.000
6:58am 346 1 3 16 23 70.1 59.8 30.18 1.81 0.00 0.00 0.00 0.000
6:59am 346 1 3 16 23 70.1 59.9 30.18 1.81 0.00 0.00 0.00 0.000
7:00am 346 0 3 16 24 70.1 60.0 30.18 1.81 0.00 0.00 0.00 0.000
7:01am 346 0 0 16 24 70.1 60.0 30.19 1.81 0.00 0.00 0.00 0.000
7:02am 346 0 1 16 24 70.1 60.0 30.19 1.81 0.00 0.00 0.00 0.000
7:03am 345 0 1 16 23 69.9 60.2 30.19 1.81 0.00 0.00 0.00 0.000
7:04am 345 0 1 16 23 69.9 60.3 30.19 1.81 0.00 0.00 0.00 0.000
7:05am 346 0 1 16 24 69.9 60.4 30.19 1.81 0.00 0.00 0.00 0.000
7:06am 346 0 1 16 24 69.9 60.5 30.19 1.81 0.00 0.00 0.00 0.000
7:07am 346 0 1 16 24 69.9 60.5 30.19 1.81 0.00 0.00 0.00 0.000
7:08am 346 0 2 16 24 69.9 60.6 30.19 1.81 0.00 0.00 0.00 0.000
7:09am 345 0 2 16 25 69.9 60.6 30.19 1.81 0.00 0.00 0.00 0.000
7:10am 345 0 2 16 25 69.9 60.6 30.19 1.81 0.00 0.00 0.00 0.000
7:11am 346 1 2 16 25 69.9 60.5 30.19 1.81 0.00 0.00 0.00 0.000
7:12am 346 1 2 16 24 69.9 60.6 30.19 1.81 0.00 0.00 0.00 0.000
7:13am 346 2 2 16 24 69.9 60.8 30.19 1.81 0.00 0.00 0.00 0.000
7:14am 346 2 4 16 24 69.9 60.9 30.19 1.81 0.00 0.00 0.00 0.000
7:15am 345 0 4 16 24 69.9 61.1 30.19 1.81 0.00 0.00 0.00 0.000
7:16am 345 0 0 16 24 69.9 61.3 30.19 1.81 0.00 0.00 0.00 0.000
7:17am 346 1 1 16 23 69.9 61.4 30.19 1.81 0.00 0.00 0.00 0.000
7:18am 346 1 2 16 23 69.9 61.6 30.19 1.81 0.00 0.00 0.00 0.000
7:19am 346 0 2 16 23 69.9 61.7 30.19 1.81 0.00 0.00 0.00 0.000
7:20am 346 0 2 16 23 69.9 61.9 30.19 1.81 0.00 0.00 0.00 0.000
7:21am 346 1 2 16 23 69.9 61.9 30.19 1.81 0.00 0.00 0.00 0.000
7:22am 346 0 2 16 23 69.9 62.1 30.19 1.81 0.00 0.00 0.00 0.000
7:23am 345 0 2 16 22 69.8 62.3 30.19 1.81 0.00 0.00 0.00 0.000
7:24am 346 0 2 16 23 69.8 62.5 30.19 1.81 0.00 0.00 0.00 0.000
7:25am 346 0 2 16 23 69.8 62.6 30.19 1.81 0.00 0.00 0.00 0.000
7:26am 346 0 2 16 23 69.8 62.7 30.18 1.81 0.00 0.00 0.00 0.000
7:27am 346 0 2 16 23 69.8 62.8 30.19 1.81 0.00 0.00 0.00 0.000
7:28am 345 0 2 16 22 69.8 63.0 30.19 1.81 0.00 0.00 0.00 0.000
7:29am 345 0 2 16 22 69.8 63.4 30.19 1.81 0.00 0.00 0.00 0.000
7:29am 346 0 2 16 22 69.8 63.5 30.19 1.81 0.00 0.00 0.00 0.000
7:31am 346 0 1 16 22 69.8 63.8 30.19 1.81 0.00 0.00 0.00 0.000
7:32am 346 0 1 16 22 69.8 64.0 30.19 1.81 0.00 0.00 0.00 0.000
7:33am 346 0 1 16 23 69.8 64.1 30.19 1.81 0.00 0.00 0.00 0.000
7:34am 345 0 1 16 22 69.8 64.2 30.19 1.81 0.00 0.00 0.00 0.000
7:35am 346 0 1 16 22 69.8 64.6 30.19 1.81 0.00 0.00 0.00 0.000
7:36am 345 0 1 16 21 69.8 64.9 30.19 1.81 0.00 0.00 0.00 0.000
7:37am 345 0 1 16 24 69.8 65.0 30.19 1.81 0.00 0.00 0.00 0.000
7:38am 346 0 1 16 22 69.8 65.1 30.19 1.81 0.00 0.00 0.00 0.000
7:39am 346 0 1 16 20 69.8 65.3 30.19 1.81 0.00 0.00 0.00 0.000
7:40am 346 0 1 16 20 69.8 65.8 30.19 1.81 0.00 0.00 0.00 0.000
7:41am 346 0 1 16 20 69.8 66.2 30.19 1.81 0.00 0.00 0.00 0.000
7:42am 345 0 1 16 21 69.8 66.3 30.19 1.81 0.00 0.00 0.00 0.000
7:43am 345 1 1 16 21 69.8 66.4 30.19 1.81 0.00 0.00 0.00 0.000
7:44am 345 1 2 16 20 69.6 66.7 30.19 1.81 0.00 0.00 0.00 0.000
7:45am 345 1 2 16 20 69.6 66.9 30.18 1.81 0.00 0.00 0.00 0.000
7:46am 346 0 1 16 20 69.6 67.2 30.19 1.81 0.00 0.00 0.00 0.000
7:47am 346 0 1 16 20 69.6 67.5 30.19 1.81 0.00 0.00 0.00 0.000
7:48am 346 0 1 16 19 69.6 67.7 30.19 1.81 0.00 0.00 0.00 0.000
7:49am 346 1 1 16 19 69.6 68.0 30.19 1.81 0.00 0.00 0.00 0.000
7:50am 345 0 1 16 19 69.6 68.3 30.19 1.81 0.00 0.00 0.00 0.000
7:51am 346 0 1 16 19 69.6 68.5 30.19 1.81 0.00 0.00 0.00 0.000
7:52am 346 0 1 16 19 69.6 68.8 30.18 1.81 0.00 0.00 0.00 0.000
7:53am 346 0 1 16 20 69.6 68.9 30.18 1.81 0.00 0.00 0.00 0.000
7:54am 346 0 1 16 23 69.6 68.8 30.18 1.81 0.00 0.00 0.00 0.000
7:55am 345 0 1 16 22 69.6 68.7 30.18 1.81 0.00 0.00 0.00 0.000
7:56am 345 0 1 16 20 69.6 68.9 30.18 1.81 0.00 0.00 0.00 0.000
7:57am 345 0 1 16 19 69.6 69.1 30.18 1.81 0.00 0.00 0.00 0.000
7:58am 346 0 1 16 18 69.6 69.4 30.18 1.81 0.00 0.00 0.00 0.000
7:59am 346 0 1 16 18 69.6 69.8 30.18 1.81 0.00 0.00 0.00 0.000
8:00am 346 0 1 16 20 69.6 70.0 30.18 1.81 0.00 0.00 0.00 0.000
8:01am 346 0 0 16 21 69.6 70.0 30.19 1.81 0.00 0.00 0.00 0.000
8:02am 345 0 0 16 20 69.6 70.1 30.19 1.81 0.00 0.00 0.00 0.000
8:03am 346 1 1 16 20 69.6 70.1 30.19 1.81 0.00 0.00 0.00 0.000
8:04am 345 0 1 16 21 69.6 70.0 30.19 1.81 0.00 0.00 0.00 0.000
8:05am 346 1 1 16 22 69.6 69.9 30.19 1.81 0.00 0.00 0.00 0.000
8:06am 346 0 1 16 22 69.6 69.8 30.19 1.81 0.00 0.00 0.00 0.000
8:07am 346 0 1 16 19 69.6 69.9 30.19 1.81 0.00 0.00 0.00 0.000
8:08am 346 0 1 16 22 69.6 69.9 30.19 1.81 0.00 0.00 0.00 0.000
8:09am 346 1 2 16 20 69.6 70.0 30.19 1.81 0.00 0.00 0.00 0.000
8:10am 345 1 2 16 20 69.6 70.0 30.20 1.81 0.00 0.00 0.00 0.000
8:11am 345 1 2 16 21 69.6 70.0 30.20 1.81 0.00 0.00 0.00 0.000
8:12am 346 1 2 16 21 69.6 70.0 30.20 1.81 0.00 0.00 0.00 0.000
8:13am 345 0 2 16 22 69.6 70.0 30.20 1.81 0.00 0.00 0.00 0.000
8:14am 346 0 2 16 22 69.6 69.9 30.20 1.81 0.00 0.00 0.00 0.000
8:15am 346 0 2 16 22 69.6 69.9 30.20 1.81 0.00 0.00 0.00 0.000
8:16am 346 0 0 16 26 69.6 70.0 30.20 1.81 0.00 0.00 0.00 0.000
8:17am 345 0 1 16 24 69.6 70.0 30.20 1.81 0.00 0.00 0.00 0.000
8:18am 346 0 1 16 20 69.6 70.1 30.20 1.81 0.00 0.00 0.00 0.000
8:19am 345 0 1 16 19 69.6 70.2 30.20 1.81 0.00 0.00 0.00 0.000
8:20am 345 0 1 16 19 69.6 70.4 30.20 1.81 0.00 0.00 0.00 0.000
8:21am 346 1 1 16 19 69.6 70.5 30.20 1.81 0.00 0.00 0.00 0.000
8:22am 346 0 1 16 19 69.6 70.7 30.19 1.81 0.00 0.00 0.00 0.000
8:23am 346 0 1 16 22 69.6 70.7 30.20 1.81 0.00 0.00 0.00 0.000
8:24am 345 0 1 16 23 69.6 70.6 30.20 1.81 0.00 0.00 0.00 0.000
8:25am 345 0 1 16 20 69.6 70.7 30.20 1.81 0.00 0.00 0.00 0.000
8:26am 345 1 1 16 19 69.6 70.7 30.20 1.81 0.00 0.00 0.00 0.000
8:27am 346 0 2 16 17 69.6 70.9 30.20 1.81 0.00 0.00 0.00 0.000
8:28am 346 0 2 16 17 69.6 71.1 30.20 1.81 0.00 0.00 0.00 0.000
8:29am 345 0 2 16 18 69.6 71.1 30.20 1.81 0.00 0.00 0.00 0.000
8:30am 346 0 2 16 17 69.6 71.3 30.19 1.81 0.00 0.00 0.00 0.000
8:31am 345 0 2 16 18 69.6 71.4 30.20 1.81 0.00 0.00 0.00 0.000
8:32am 346 1 2 16 17 69.6 71.5 30.20 1.81 0.00 0.00 0.00 0.000
8:33am 346 2 2 16 17 69.6 71.6 30.20 1.81 0.00 0.00 0.00 0.000
8:34am 346 0 2 16 17 69.6 71.7 30.20 1.81 0.00 0.00 0.00 0.000
8:35am 346 0 2 16 17 69.6 71.8 30.19 1.81 0.00 0.00 0.00 0.000
8:36am 346 0 2 16 18 69.6 71.8 30.19 1.81 0.00 0.00 0.00 0.000
8:37am 346 0 2 16 18 69.6 71.8 30.20 1.81 0.00 0.00 0.00 0.000
8:38am 346 0 2 16 19 69.8 71.6 30.20 1.81 0.00 0.00 0.00 0.000
8:39am 346 0 2 16 19 69.8 71.6 30.20 1.81 0.00 0.00 0.00 0.000
8:40am 346 0 2 16 18 69.8 71.5 30.20 1.81 0.00 0.00 0.00 0.000
8:41am 346 1 3 16 18 69.8 71.5 30.20 1.81 0.00 0.00 0.00 0.000
8:42am 346 1 3 16 18 69.8 71.6 30.20 1.81 0.00 0.00 0.00 0.000
8:43am 346 0 3 16 18 69.8 71.7 30.20 1.81 0.00 0.00 0.00 0.000
8:44am 346 0 3 16 17 69.8 71.8 30.20 1.81 0.00 0.00 0.00 0.000
8:45am 346 0 3 16 17 69.8 72.0 30.20 1.81 0.00 0.00 0.00 0.000
8:46am 346 1 1 16 17 69.8 72.1 30.19 1.81 0.00 0.00 0.00 0.000
8:47am 346 1 1 16 17 69.9 72.1 30.19 1.81 0.00 0.00 0.00 0.000
8:48am 346 1 2 16 17 69.9 72.3 30.19 1.81 0.00 0.00 0.00 0.000
8:49am 346 1 2 16 16 69.9 72.4 30.20 1.81 0.00 0.00 0.00 0.000
8:50am 346 1 3 16 16 69.9 72.6 30.20 1.81 0.00 0.00 0.00 0.000
8:51am 346 1 3 16 15 69.9 72.7 30.19 1.81 0.00 0.00 0.00 0.000
8:52am 353 2 3 16 15 69.9 72.9 30.19 1.81 0.00 0.00 0.00 0.000
8:53am 355 0 3 16 15 69.9 73.0 30.19 1.81 0.00 0.00 0.00 0.000
8:53am 355 0 3 16 15 69.9 73.1 30.19 1.81 0.00 0.00 0.00 0.000
8:55am 355 0 3 16 15 70.1 73.1 30.19 1.81 0.00 0.00 0.00 0.000
8:56am 355 0 3 16 15 70.1 73.2 30.19 1.81 0.00 0.00 0.00 0.000
8:57am 355 0 3 16 15 70.1 73.2 30.19 1.81 0.00 0.00 0.00 0.000
8:58am 355 0 3 16 15 70.1 73.3 30.19 1.81 0.00 0.00 0.00 0.000
8:59am 355 0 3 16 16 70.1 73.4 30.19 1.81 0.00 0.00 0.00 0.000
9:00am 355 0 3 16 15 70.3 73.5 30.19 1.81 0.00 0.00 0.00 0.000
9:01am 355 0 0 16 16 70.3 73.7 30.19 1.81 0.00 0.00 0.00 0.000
9:02am 355 0 0 16 17 70.3 73.8 30.19 1.81 0.00 0.00 0.00 0.000
9:03am 355 0 0 16 17 70.3 74.0 30.19 1.81 0.00 0.00 0.00 0.000
9:04am 355 0 1 16 17 70.3 74.1 30.19 1.81 0.00 0.00 0.00 0.000
9:05am 355 0 1 16 17 70.3 74.3 30.19 1.81 0.00 0.00 0.00 0.000
9:06am 355 0 1 16 16 70.5 74.4 30.19 1.81 0.00 0.00 0.00 0.000
9:07am 355 2 2 16 16 70.5 74.5 30.18 1.81 0.00 0.00 0.00 0.000
9:08am 355 3 3 16 16 70.5 74.7 30.19 1.81 0.00 0.00 0.00 0.000
9:09am 355 2 3 16 17 70.5 74.9 30.18 1.81 0.00 0.00 0.00 0.000
9:10am 355 3 3 16 18 70.5 75.0 30.19 1.81 0.00 0.00 0.00 0.000
9:11am 161 3 4 16 17 70.5 75.2 30.18 1.81 0.00 0.00 0.00 0.000
9:12am 161 3 4 16 15 70.6 75.3 30.18 1.81 0.00 0.00 0.00 0.000
9:13am 161 2 4 16 15 70.6 75.4 30.18 1.81 0.00 0.00 0.00 0.000
9:14am 163 2 4 16 15 70.6 75.6 30.18 1.81 0.00 0.00 0.00 0.000
9:15am 169 3 4 16 15 70.8 75.7 30.18 1.81 0.00 0.00 0.00 0.000
9:16am 169 1 4 16 16 70.8 75.8 30.18 1.81 0.00 0.00 0.00 0.000
9:17am 169 1 4 16 16 70.8 75.9 30.18 1.81 0.00 0.00 0.00 0.000
9:18am 169 1 4 16 16 70.8 75.9 30.18 1.81 0.00 0.00 0.00 0.000
9:19am 168 1 4 16 17 70.8 76.0 30.18 1.81 0.00 0.00 0.00 0.000
9:20am 169 2 4 16 16 71.0 76.0 30.18 1.81 0.00 0.00 0.00 0.000
9:21am 169 2 4 16 16 71.0 76.1 30.18 1.81 0.00 0.00 0.00 0.000
9:22am 169 0 4 16 16 71.0 76.1 30.18 1.81 0.00 0.00 0.00 0.000
9:23am 169 0 4 16 16 71.0 76.2 30.18 1.81 0.00 0.00 0.00 0.000
9:24am 168 1 4 16 16 71.1 76.2 30.18 1.81 0.00 0.00 0.00 0.000
9:25am 169 2 4 16 16 71.1 76.3 30.18 1.81 0.00 0.00 0.00 0.000
9:26am 168 4 4 16 16 71.1 76.3 30.18 1.81 0.00 0.00 0.00 0.000
9:27am 167 2 4 16 17 71.1 76.3 30.18 1.81 0.00 0.00 0.00 0.000
9:28am 167 4 4 16 17 71.3 76.3 30.18 1.81 0.00 0.00 0.00 0.000
9:29am 167 4 4 16 16 71.3 76.4 30.18 1.81 0.00 0.00 0.00 0.000
9:30am 167 1 4 16 17 71.3 76.5 30.18 1.81 0.00 0.00 0.00 0.000
9:31am 167 1 2 16 17 71.3 76.4 30.18 1.81 0.00 0.00 0.00 0.000
9:32am 167 0 2 16 17 71.5 76.4 30.18 1.81 0.00 0.00 0.00 0.000
9:33am 167 1 2 16 17 71.5 76.4 30.18 1.81 0.00 0.00 0.00 0.000
9:34am 167 1 2 16 16 71.5 76.5 30.18 1.81 0.00 0.00 0.00 0.000
9:35am 167 1 2 16 16 71.6 76.5 30.18 1.81 0.00 0.00 0.00 0.000
9:36am 167 2 3 16 16 71.6 76.6 30.18 1.81 0.00 0.00 0.00 0.000
9:37am 167 0 3 16 16 71.6 76.7 30.18 1.81 0.00 0.00 0.00 0.000
9:38am 167 4 4 16 16 71.6 76.8 30.18 1.81 0.00 0.00 0.00 0.000
9:39am 167 2 4 16 15 71.6 76.8 30.18 1.81 0.00 0.00 0.00 0.000
9:40am 167 3 4 16 15 71.8 76.9 30.18 1.81 0.00 0.00 0.00 0.000
9:41am 167 3 4 16 14 71.8 76.9 30.18 1.81 0.00 0.00 0.00 0.000
9:42am 184 4 6 16 14 71.8 76.9 30.18 1.81 0.00 0.00 0.00 0.000
9:43am 185 2 6 16 14 72.0 76.9 30.18 1.81 0.00 0.00 0.00 0.000
9:44am 164 4 6 16 14 72.0 76.9 30.18 1.81 0.00 0.00 0.00 0.000
9:45am 175 4 6 16 14 72.0 77.0 30.18 1.81 0.00 0.00 0.00 0.000
9:46am 168 3 4 16 14 72.0 77.0 30.18 1.81 0.00 0.00 0.00 0.000
9:47am 164 2 4 16 13 72.1 77.0 30.17 1.81 0.00 0.00 0.00 0.000
9:48am 164 3 4 16 14 72.1 77.2 30.17 1.81 0.00 0.00 0.00 0.000
9:49am 165 2 4 16 14 72.3 77.2 30.17 1.81 0.00 0.00 0.00 0.000
9:50am 165 3 4 16 15 72.3 77.2 30.17 1.81 0.00 0.00 0.00 0.000
9:51am 165 1 4 16 15 72.3 77.2 30.17 1.81 0.00 0.00 0.00 0.000
9:52am 164 3 5 16 14 72.3 77.2 30.17 1.81 0.00 0.00 0.00 0.000
9:53am 159 3 5 16 14 72.5 77.3 30.17 1.81 0.00 0.00 0.00 0.000
9:54am 169 3 5 16 14 72.5 77.4 30.17 1.81 0.00 0.00 0.00 0.000
9:55am 166 4 5 16 14 72.5 77.4 30.17 1.81 0.00 0.00 0.00 0.000
9:56am 159 4 5 16 14 72.7 77.5 30.17 1.81 0.00 0.00 0.00 0.000
9:57am 167 3 5 16 13 72.7 77.6 30.17 1.81 0.00 0.00 0.00 0.000
9:58am 167 2 5 16 14 72.7 77.6 30.17 1.81 0.00 0.00 0.00 0.000
9:59am 145 3 5 16 14 72.8 77.7 30.17 1.81 0.00 0.00 0.00 0.000
10:00am 169 3 5 16 14 72.8 77.8 30.17 1.81 0.00 0.00 0.00 0.000
10:01am 168 1 3 16 14 72.8 77.8 30.17 1.81 0.00 0.00 0.00 0.000
10:02am 171 2 3 16 13 73.0 77.9 30.17 1.81 0.00 0.00 0.00 0.000
10:03am 158 0 4 16 13 73.0 78.0 30.17 1.81 0.00 0.00 0.00 0.000
10:04am 158 0 4 16 13 73.0 78.1 30.17 1.81 0.00 0.00 0.00 0.000
10:05am 171 3 5 16 13 73.2 78.1 30.17 1.81 0.00 0.00 0.00 0.000
10:06am 173 3 5 16 13 73.2 78.2 30.17 1.81 0.00 0.00 0.00 0.000
10:07am 167 4 5 16 13 73.2 78.2 30.17 1.81 0.00 0.00 0.00 0.000
10:08am 172 4 6 16 13 73.2 78.3 30.17 1.81 0.00 0.00 0.00 0.000
10:09am 168 3 6 17 13 73.3 78.3 30.17 1.81 0.00 0.00 0.00 0.000
10:10am 178 5 6 17 13 73.3 78.4 30.17 1.81 0.00 0.00 0.00 0.000
10:11am 182 2 6 17 14 73.3 78.4 30.16 1.81 0.00 0.00 0.00 0.000
10:12am 180 3 6 17 14 73.5 78.5 30.16 1.81 0.00 0.00 0.00 0.000
10:13am 182 5 6 17 13 73.5 78.5 30.16 1.81 0.00 0.00 0.00 0.000
10:14am 165 0 6 17 12 73.5 78.6 30.16 1.81 0.00 0.00 0.00 0.000
10:15am 166 0 6 17 13 73.5 78.7 30.16 1.81 0.00 0.00 0.00 0.000
10:16am 167 2 3 17 13 73.7 78.8 30.16 1.81 0.00 0.00 0.00 0.000
10:17am 167 1 3 17 13 73.7 78.9 30.16 1.81 0.00 0.00 0.00 0.000
10:18am 167 1 3 17 13 73.9 79.0 30.16 1.81 0.00 0.00 0.00 0.000
10:19am 168 3 3 17 13 73.9 79.0 30.16 1.81 0.00 0.00 0.00 0.000
10:20am 168 3 3 17 13 73.9 79.0 30.16 1.81 0.00 0.00 0.00 0.000
10:21am 167 2 3 17 13 74.0 79.0 30.16 1.81 0.00 0.00 0.00 0.000
10:22am 167 0 4 17 13 74.0 79.2 30.16 1.81 0.00 0.00 0.00 0.000
10:22am 167 0 4 17 14 74.0 79.2 30.16 1.81 0.00 0.00 0.00 0.000
10:24am 167 0 4 17 14 74.2 79.4 30.16 1.81 0.00 0.00 0.00 0.000
10:25am 165 0 4 17 13 74.2 79.4 30.16 1.81 0.00 0.00 0.00 0.000
10:26am 165 2 4 17 13 74.2 79.5 30.16 1.81 0.00 0.00 0.00 0.000
10:27am 164 1 4 17 13 74.2 79.6 30.15 1.81 0.00 0.00 0.00 0.000
10:28am 164 1 4 17 14 74.4 79.7 30.15 1.81 0.00 0.00 0.00 0.000
10:29am 165 3 4 17 14 74.4 79.8 30.15 1.81 0.00 0.00 0.00 0.000
10:30am 165 3 5 17 13 74.4 79.9 30.15 1.81 0.00 0.00 0.00 0.000
10:31am 163 3 4 17 13 74.5 79.9 30.15 1.81 0.00 0.00 0.00 0.000
10:32am 162 3 5 17 12 74.5 79.9 30.15 1.81 0.00 0.00 0.00 0.000
10:33am 162 1 5 17 12 74.5 80.0 30.15 1.81 0.00 0.00 0.00 0.000
10:34am 161 0 5 17 13 74.7 80.0 30.15 1.81 0.00 0.00 0.00 0.000
10:35am 161 2 5 17 14 74.7 80.1 30.15 1.81 0.00 0.00 0.00 0.000
10:36am 162 2 5 17 13 74.7 80.1 30.15 1.81 0.00 0.00 0.00 0.000
10:37am 162 1 5 17 13 74.9 80.2 30.15 1.81 0.00 0.00 0.00 0.000
10:38am 162 2 5 17 13 74.9 80.4 30.15 1.81 0.00 0.00 0.00 0.000
10:39am 163 2 5 17 13 74.9 80.5 30.15 1.81 0.00 0.00 0.00 0.000
10:40am 142 2 5 17 13 75.1 80.6 30.15 1.81 0.00 0.00 0.00 0.000
10:41am 145 1 5 17 13 75.1 80.7 30.15 1.81 0.00 0.00 0.00 0.000
10:42am 145 2 5 17 13 75.1 80.8 30.15 1.81 0.00 0.00 0.00 0.000
10:43am 152 2 5 17 13 75.2 80.9 30.15 1.81 0.00 0.00 0.00 0.000
10:44am 154 1 5 17 13 75.2 81.0 30.14 1.81 0.00 0.00 0.00 0.000
10:45am 157 2 5 17 12 75.2 81.0 30.14 1.81 0.00 0.00 0.00 0.000
10:46am 166 2 5 17 13 75.4 81.0 30.14 1.81 0.00 0.00 0.00 0.000
10:47am 167 2 5 17 14 75.4 81.1 30.14 1.81 0.00 0.00 0.00 0.000
10:48am 187 5 5 17 13 75.4 81.1 30.14 1.81 0.00 0.00 0.00 0.000
10:49am 184 4 5 17 13 75.6 81.1 30.14 1.81 0.00 0.00 0.00 0.000
10:50am 182 4 5 17 13 75.6 81.1 30.14 1.81 0.00 0.00 0.00 0.000
10:51am 180 4 5 17 12 75.6 81.0 30.14 1.81 0.00 0.00 0.00 0.000
10:52am 172 3 5 17 12 75.6 81.1 30.14 1.81 0.00 0.00 0.00 0.000
10:53am 173 3 5 17 12 75.8 81.1 30.14 1.81 0.00 0.00 0.00 0.000
10:54am 171 4 5 17 12 75.8 81.2 30.14 1.81 0.00 0.00 0.00 0.000
10:55am 169 0 5 17 12 75.8 81.3 30.14 1.81 0.00 0.00 0.00 0.000
10:56am 169 2 5 17 11 75.9 81.3 30.14 1.81 0.00 0.00 0.00 0.000
10:57am 169 4 5 17 12 75.9 81.4 30.14 1.81 0.00 0.00 0.00 0.000
10:58am 169 3 5 17 11 76.1 81.5 30.14 1.81 0.00 0.00 0.00 0.000
10:59am 169 2 5 17 11 76.1 81.6 30.13 1.81 0.00 0.00 0.00 0.000
11:00am 169 1 5 17 11 76.1 81.7 30.13 1.81 0.00 0.00 0.00 0.000
11:01am 156 3 5 17 11 76.3 81.7 30.14 1.81 0.00 0.00 0.00 0.000
11:02am 175 4 6 17 12 76.3 81.8 30.14 1.81 0.00 0.00 0.00 0.000
11:03am 165 5 6 17 11 76.3 81.8 30.13 1.81 0.00 0.00 0.00 0.000
11:04am 165 3 6 17 12 76.3 81.9 30.13 1.81 0.00 0.00 0.00 0.000
11:05am 168 3 6 17 11 76.5 81.9 30.13 1.81 0.00 0.00 0.00 0.000
11:06am 168 3 6 17 12 76.5 82.0 30.13 1.81 0.00 0.00 0.00 0.000
11:07am 173 4 6 17 11 76.6 82.0 30.13 1.81 0.00 0.00 0.00 0.000
11:08am 170 3 6 17 11 76.6 82.0 30.13 1.81 0.00 0.00 0.00 0.000
11:09am 171 2 6 17 11 76.6 82.0 30.13 1.81 0.00 0.00 0.00 0.000
11:10am 168 4 6 17 11 76.6 82.1 30.13 1.81 0.00 0.00 0.00 0.000
11:11am 169 3 6 17 11 76.8 82.1 30.13 1.81 0.00 0.00 0.00 0.000
11:12am 170 4 6 17 11 76.8 82.1 30.13 1.81 0.00 0.00 0.00 0.000
11:13am 166 4 6 17 11 77.0 82.1 30.13 1.81 0.00 0.00 0.00 0.000
11:14am 165 2 6 17 11 77.0 82.2 30.13 1.81 0.00 0.00 0.00 0.000
11:15am 165 3 6 17 11 77.0 82.2 30.13 1.81 0.00 0.00 0.00 0.000
11:16am 167 5 5 17 12 77.2 82.3 30.13 1.81 0.00 0.00 0.00 0.000
11:17am 154 2 5 17 11 77.2 82.4 30.13 1.81 0.00 0.00 0.00 0.000
11:18am 162 3 5 17 12 77.2 82.4 30.13 1.81 0.00 0.00 0.00 0.000
11:19am 168 4 6 17 12 77.3 82.4 30.13 1.81 0.00 0.00 0.00 0.000
11:20am 172 2 6 17 11 77.3 82.4 30.12 1.81 0.00 0.00 0.00 0.000
11:21am 172 1 6 17 12 77.3 82.5 30.13 1.81 0.00 0.00 0.00 0.000
11:21am 145 5 6 17 11 77.3 82.6 30.12 1.81 0.00 0.00 0.00 0.000
11:23am 166 2 6 17 11 77.5 82.6 30.12 1.81 0.00 0.00 0.00 0.000
11:24am 157 2 6 17 11 77.5 82.6 30.12 1.81 0.00 0.00 0.00 0.000
11:25am 157 5 6 17 11 77.7 82.5 30.12 1.81 0.00 0.00 0.00 0.000
11:26am 161 4 6 17 11 77.7 82.6 30.12 1.81 0.00 0.00 0.00 0.000
11:27am 176 2 6 17 11 77.7 82.6 30.12 1.81 0.00 0.00 0.00 0.000
11:28am 168 5 6 17 11 77.9 82.7 30.12 1.81 0.00 0.00 0.00 0.000
11:29am 171 3 6 17 11 77.9 82.7 30.12 1.81 0.00 0.00 0.00 0.000
11:30am 179 4 6 17 10 77.9 82.6 30.12 1.81 0.00 0.00 0.00 0.000
11:31am 162 2 5 17 11 78.1 82.6 30.12 1.81 0.00 0.00 0.00 0.000
11:32am 172 3 5 17 11 78.1 82.6 30.12 1.81 0.00 0.00 0.00 0.000
11:33am 170 3 5 17 11 78.1 82.6 30.12 1.81 0.00 0.00 0.00 0.000
11:34am 165 3 5 17 11 78.2 82.7 30.12 1.81 0.00 0.00 0.00 0.000
11:35am 164 2 5 17 11 78.2 82.7 30.12 1.81 0.00 0.00 0.00 0.000
11:36am 203 4 5 17 11 78.2 82.7 30.12 1.81 0.00 0.00 0.00 0.000
11:37am 204 1 5 17 11 78.4 82.7 30.12 1.81 0.00 0.00 0.00 0.000
11:38am 195 2 5 17 12 78.4 82.8 30.12 1.81 0.00 0.00 0.00 0.000
11:39am 195 3 5 17 11 78.4 82.9 30.11 1.81 0.00 0.00 0.00 0.000
11:40am 195 2 5 17 11 78.6 83.0 30.11 1.81 0.00 0.00 0.00 0.000
11:41am 194 2 5 17 11 78.6 83.0 30.11 1.81 0.00 0.00 0.00 0.000
11:42am 194 4 5 17 11 78.6 83.1 30.11 1.81 0.00 0.00 0.00 0.000
11:43am 180 0 5 17 12 78.8 83.1 30.11 1.81 0.00 0.00 0.00 0.000
11:44am 164 3 5 17 11 78.8 83.2 30.11 1.81 0.00 0.00 0.00 0.000
11:45am 166 3 5 17 11 78.8 83.2 30.11 1.81 0.00 0.00 0.00 0.000
11:46am 163 1 4 17 11 78.9 83.2 30.11 1.81 0.00 0.00 0.00 0.000
11:47am 163 2 4 17 11 78.9 83.2 30.11 1.81 0.00 0.00 0.00 0.000
11:48am 185 4 4 17 11 78.9 83.3 30.11 1.81 0.00 0.00 0.00 0.000
11:49am 151 2 5 17 11 79.1 83.3 30.11 1.81 0.00 0.00 0.00 0.000
11:50am 180 4 5 17 11 79.1 83.3 30.11 1.81 0.00 0.00 0.00 0.000
11:51am 175 2 5 17 11 79.1 83.3 30.11 1.81 0.00 0.00 0.00 0.000
11:52am 175 3 5 17 11 79.1 83.4 30.11 1.81 0.00 0.00 0.00 0.000
11:53am 174 2 5 17 11 79.3 83.4 30.11 1.81 0.00 0.00 0.00 0.000
11:54am 174 0 5 17 10 79.3 83.5 30.11 1.81 0.00 0.00 0.00 0.000
11:55am 174 1 5 17 11 79.3 83.6 30.11 1.81 0.00 0.00 0.00 0.000
11:56am 171 0 5 17 10 79.3 83.6 30.11 1.81 0.00 0.00 0.00 0.000
11:57am 172 3 5 17 10 79.5 83.6 30.11 1.81 0.00 0.00 0.00 0.000
11:58am 172 2 5 18 11 79.5 83.7 30.11 1.81 0.00 0.00 0.00 0.000
11:59am 172 3 5 18 11 79.5 83.7 30.11 1.81 0.00 0.00 0.00 0.000
12:00pm 172 0 5 18 11 79.7 83.8 30.10 1.81 0.00 0.00 0.00 0.000
12:01pm 172 2 3 18 11 79.7 83.8 30.11 1.81 0.00 0.00 0.00 0.000
12:02pm 172 2 3 18 10 79.9 83.7 30.11 1.81 0.00 0.00 0.00 0.000
12:03pm 172 1 3 18 11 79.9 83.7 30.11 1.81 0.00 0.00 0.00 0.000
12:04pm 172 4 4 18 10 79.9 83.7 30.11 1.81 0.00 0.00 0.00 0.000
12:05pm 172 2 4 18 10 79.9 83.8 30.11 1.81 0.00 0.00 0.00 0.000
12:06pm 172 2 4 18 11 80.1 83.9 30.10 1.81 0.00 0.00 0.00 0.000
12:07pm 172 1 4 18 10 80.1 83.8 30.10 1.81 0.00 0.00 0.00 0.000
12:08pm 172 1 4 18 10 80.2 83.9 30.10 1.81 0.00 0.00 0.00 0.000
12:09pm 172 2 4 18 11 80.2 83.9 30.10 1.81 0.00 0.00 0.00 0.000
12:10pm 172 1 4 18 11 80.2 83.9 30.10 1.81 0.00 0.00 0.00 0.000
12:11pm 172 0 4 18 11 80.2 83.9 30.10 1.81 0.00 0.00 0.00 0.000
12:12pm 172 1 4 18 10 80.4 83.9 30.10 1.81 0.00 0.00 0.00 0.000
12:13pm 172 0 4 18 10 80.4 84.0 30.10 1.81 0.00 0.00 0.00 0.000
12:14pm 172 1 4 18 11 80.4 84.2 30.10 1.81 0.00 0.00 0.00 0.000
12:15pm 172 3 4 18 11 80.4 84.3 30.10 1.81 0.00 0.00 0.00 0.000
12:16pm 172 0 3 18 10 80.6 84.3 30.10 1.81 0.00 0.00 0.00 0.000
12:17pm 172 3 4 18 12 80.6 84.4 30.10 1.81 0.00 0.00 0.00 0.000
12:18pm 173 2 4 18 10 80.6 84.4 30.10 1.81 0.00 0.00 0.00 0.000
12:19pm 173 1 4 18 10 80.8 84.3 30.10 1.81 0.00 0.00 0.00 0.000
12:20pm 173 1 4 18 11 80.8 84.2 30.10 1.81 0.00 0.00 0.00 0.000
12:21pm 173 0 4 18 11 80.8 84.2 30.10 1.81 0.00 0.00 0.00 0.000
12:22pm 172 1 4 18 11 80.8 84.2 30.10 1.81 0.00 0.00 0.00 0.000
12:23pm 172 1 4 18 11 81.0 84.2 30.10 1.81 0.00 0.00 0.00 0.000
12:24pm 172 0 4 18 11 81.0 84.4 30.10 1.81 0.00 0.00 0.00 0.000
12:25pm 173 0 4 18 11 81.2 84.4 30.09 1.81 0.00 0.00 0.00 0.000
12:26pm 172 1 4 18 11 81.2 84.6 30.09 1.81 0.00 0.00 0.00 0.000
12:27pm 173 0 4 18 10 81.2 84.6 30.09 1.81 0.00 0.00 0.00 0.000
12:28pm 173 1 4 18 10 81.4 84.6 30.09 1.81 0.00 0.00 0.00 0.000
12:29pm 173 0 4 18 10 81.4 84.7 30.09 1.81 0.00 0.00 0.00 0.000
12:30pm 172 1 4 18 10 81.4 84.7 30.09 1.81 0.00 0.00 0.00 0.000
12:31pm 172 0 1 18 10 81.4 84.9 30.09 1.81 0.00 0.00 0.00 0.000
12:32pm 172 0 1 18 10 81.4 85.0 30.09 1.81 0.00 0.00 0.00 0.000
12:33pm 173 1 1 18 11 81.5 85.0 30.09 1.81 0.00 0.00 0.00 0.000
12:33pm 172 0 1 18 10 81.5 84.9 30.09 1.81 0.00 0.00 0.00 0.000
12:35pm 173 0 1 18 10 81.7 84.9 30.09 1.81 0.00 0.00 0.00 0.000
12:36pm 172 0 1 18 10 81.7 84.9 30.09 1.81 0.00 0.00 0.00 0.000
12:37pm 172 0 1 18 10 81.7 85.0 30.09 1.81 0.00 0.00 0.00 0.000
12:38pm 172 1 2 18 11 81.7 85.0 30.09 1.81 0.00 0.00 0.00 0.000
12:38pm 173 2 3 18 10 81.7 85.1 30.09 1.81 0.00 0.00 0.00 0.000
12:40pm 173 1 3 18 10 81.9 85.0 30.09 1.81 0.00 0.00 0.00 0.000
12:41pm 173 2 4 18 11 81.9 84.9 30.08 1.81 0.00 0.00 0.00 0.000
12:42pm 173 1 4 18 10 81.9 84.8 30.09 1.81 0.00 0.00 0.00 0.000
12:43pm 172 1 4 18 10 82.1 84.7 30.08 1.81 0.00 0.00 0.00 0.000
12:44pm 172 0 4 18 11 82.1 84.6 30.08 1.81 0.00 0.00 0.00 0.000
12:45pm 173 0 4 18 10 82.1 84.6 30.08 1.81 0.00 0.00 0.00 0.000
12:46pm 173 0 2 18 10 82.1 84.6 30.08 1.81 0.00 0.00 0.00 0.000
12:47pm 173 1 2 18 10 82.3 84.6 30.08 1.81 0.00 0.00 0.00 0.000
12:48pm 173 0 2 18 10 82.3 84.6 30.08 1.81 0.00 0.00 0.00 0.000
12:49pm 173 0 2 18 10 82.3 84.6 30.08 1.81 0.00 0.00 0.00 0.000
12:50pm 172 0 2 18 11 82.3 84.6 30.08 1.81 0.00 0.00 0.00 0.000
12:51pm 172 0 2 18 10 82.5 84.7 30.08 1.81 0.00 0.00 0.00 0.000
12:52pm 173 0 2 18 10 82.5 84.8 30.08 1.81 0.00 0.00 0.00 0.000
12:53pm 173 0 2 18 11 82.7 84.9 30.08 1.81 0.00 0.00 0.00 0.000
12:54pm 173 0 2 18 11 82.7 85.0 30.08 1.81 0.00 0.00 0.00 0.000
12:55pm 182 3 3 18 12 82.7 85.2 30.08 1.81 0.00 0.00 0.00 0.000
12:56pm 183 3 4 18 11 82.7 85.2 30.08 1.81 0.00 0.00 0.00 0.000
12:57pm 183 1 4 18 10 82.7 85.2 30.08 1.81 0.00 0.00 0.00 0.000
12:58pm 183 2 4 18 10 82.9 85.2 30.08 1.81 0.00 0.00 0.00 0.000
12:59pm 183 1 4 18 11 82.9 85.3 30.08 1.81 0.00 0.00 0.00 0.000
1:00pm 183 1 4 18 12 82.9 85.5 30.07 1.81 0.00 0.00 0.00 0.000
1:01pm 183 2 4 18 11 83.0 85.6 30.07 1.81 0.00 0.00 0.00 0.000
1:02pm 183 1 4 18 11 83.0 85.5 30.07 1.81 0.00 0.00 0.00 0.000
1:03pm 183 3 4 18 12 83.0 85.6 30.07 1.81 0.00 0.00 0.00 0.000
1:04pm 183 0 4 18 11 83.2 85.7 30.07 1.81 0.00 0.00 0.00 0.000
1:05pm 183 3 4 18 11 83.2 85.7 30.07 1.81 0.00 0.00 0.00 0.000
1:06pm 183 2 4 18 11 83.2 85.6 30.07 1.81 0.00 0.00 0.00 0.000
1:07pm 182 1 4 18 11 83.2 85.6 30.07 1.81 0.00 0.00 0.00 0.000
1:08pm 182 0 4 18 11 83.2 85.6 30.07 1.81 0.00 0.00 0.00 0.000
1:09pm 183 1 4 18 11 83.4 85.6 30.07 1.81 0.00 0.00 0.00 0.000
1:10pm 182 1 4 18 11 83.4 85.6 30.07 1.81 0.00 0.00 0.00 0.000
1:11pm 182 0 4 18 10 83.4 85.6 30.07 1.81 0.00 0.00 0.00 0.000
1:12pm 183 2 4 18 11 83.6 85.6 30.07 1.81 0.00 0.00 0.00 0.000
1:13pm 183 0 4 18 11 83.6 85.7 30.07 1.81 0.00 0.00 0.00 0.000
1:14pm 182 0 4 18 10 83.6 85.8 30.07 1.81 0.00 0.00 0.00 0.000
1:15pm 182 3 4 18 11 83.6 85.8 30.07 1.81 0.00 0.00 0.00 0.000
1:16pm 182 3 3 18 11 83.8 85.7 30.07 1.81 0.00 0.00 0.00 0.000
1:17pm 182 2 3 18 11 83.8 85.8 30.07 1.81 0.00 0.00 0.00 0.000
1:18pm 182 0 3 18 10 83.8 85.8 30.07 1.81 0.00 0.00 0.00 0.000
1:19pm 182 1 3 18 10 83.8 85.8 30.07 1.81 0.00 0.00 0.00 0.000
1:19pm 182 0 3 18 10 84.0 85.7 30.07 1.81 0.00 0.00 0.00 0.000
1:21pm 182 0 3 18 10 84.0 85.7 30.07 1.81 0.00 0.00 0.00 0.000
1:22pm 182 0 3 18 11 84.0 85.7 30.07 1.81 0.00 0.00 0.00 0.000
1:23pm 182 1 3 18 10 84.0 85.8 30.06 1.81 0.00 0.00 0.00 0.000
1:24pm 183 2 4 18 11 84.2 85.8 30.06 1.81 0.00 0.00 0.00 0.000
1:25pm 184 2 4 18 12 84.2 85.8 30.06 1.81 0.00 0.00 0.00 0.000
1:26pm 185 2 4 18 11 84.2 85.8 30.06 1.81 0.00 0.00 0.00 0.000
1:27pm 185 3 4 18 11 84.4 85.8 30.06 1.81 0.00 0.00 0.00 0.000
1:28pm 182 2 4 18 10 84.4 85.7 30.06 1.81 0.00 0.00 0.00 0.000
1:29pm 182 0 4 18 10 84.4 85.6 30.06 1.81 0.00 0.00 0.00 0.000
1:30pm 182 3 4 18 10 84.4 85.6 30.06 1.81 0.00 0.00 0.00 0.000
1:31pm 182 2 3 18 10 84.6 85.5 30.06 1.81 0.00 0.00 0.00 0.000
1:32pm 182 1 3 18 10 84.6 85.5 30.06 1.81 0.00 0.00 0.00 0.000
1:33pm 182 1 3 18 11 84.6 85.5 30.06 1.81 0.00 0.00 0.00 0.000
1:34pm 182 0 3 18 11 84.6 85.5 30.06 1.81 0.00 0.00 0.00 0.000
1:35pm 182 0 3 18 11 84.6 85.5 30.06 1.81 0.00 0.00 0.00 0.000
1:36pm 182 0 3 18 11 84.8 85.5 30.06 1.81 0.00 0.00 0.00 0.000
1:37pm 182 0 3 18 12 84.8 85.5 30.06 1.81 0.00 0.00 0.00 0.000
1:38pm 182 0 3 18 11 84.8 85.5 30.06 1.81 0.00 0.00 0.00 0.000
1:39pm 182 1 3 18 11 84.8 85.6 30.06 1.81 0.00 0.00 0.00 0.000
1:40pm 182 1 3 18 11 85.0 85.6 30.06 1.81 0.00 0.00 0.00 0.000
1:40pm 182 0 3 18 11 85.0 85.6 30.06 1.81 0.00 0.00 0.00 0.000
1:42pm 182 3 3 18 12 85.0 85.7 30.06 1.81 0.00 0.00 0.00 0.000
1:43pm 182 2 3 18 10 85.0 85.6 30.06 1.81 0.00 0.00 0.00 0.000
1:44pm 182 2 3 18 10 85.0 85.5 30.06 1.81 0.00 0.00 0.00 0.000
1:45pm 182 2 3 18 10 85.2 85.5 30.06 1.81 0.00 0.00 0.00 0.000
1:46pm 182 1 2 18 10 85.2 85.4 30.06 1.81 0.00 0.00 0.00 0.000
1:47pm 182 3 3 18 10 85.2 85.4 30.06 1.81 0.00 0.00 0.00 0.000
1:48pm 182 0 3 18 10 85.4 85.5 30.06 1.81 0.00 0.00 0.00 0.000
1:49pm 182 0 3 18 10 85.4 85.5 30.06 1.81 0.00 0.00 0.00 0.000
1:50pm 182 0 3 18 10 85.4 85.5 30.06 1.81 0.00 0.00 0.00 0.000
1:51pm 182 3 3 18 10 85.4 85.6 30.06 1.81 0.00 0.00 0.00 0.000
1:52pm 182 1 4 18 11 85.4 85.7 30.06 1.81 0.00 0.00 0.00 0.000
1:53pm 182 2 4 18 11 85.6 85.7 30.06 1.81 0.00 0.00 0.00 0.000
1:54pm 182 1 4 18 11 85.6 85.7 30.06 1.81 0.00 0.00 0.00 0.000
1:55pm 182 2 4 18 11 85.6 85.7 30.06 1.81 0.00 0.00 0.00 0.000
1:56pm 182 2 4 18 11 85.6 85.7 30.06 1.81 0.00 0.00 0.00 0.000
1:57pm 182 2 4 18 10 85.8 85.8 30.06 1.81 0.00 0.00 0.00 0.000
1:58pm 182 0 4 18 10 85.8 85.8 30.06 1.81 0.00 0.00 0.00 0.000
1:59pm 182 2 4 18 11 85.8 85.8 30.06 1.81 0.00 0.00 0.00 0.000
2:00pm 182 1 4 18 11 85.8 85.8 30.06 1.81 0.00 0.00 0.00 0.000
2:01pm 182 0 2 18 10 85.8 85.9 30.06 1.81